Simultaneous Nadir Overpasses (SNOs) Predictions

Prediction of SNOs between METOP-C and LANDSAT-8 Satellite Orbit:

Table of predicted SNOs for the next 14.0 days since TLE Epoch: 7/2/2022
Index Date (METOP-C) Time (METOP-C) Lat,Lon (METOP-C) SZA (METOP-C ) Date (LANDSAT-8) Time (LANDSAT-8) Lat,Lon (LANDSAT-8) SZA (LANDSAT-8 ) Distance(km) Time Diff (sec)
1 07/03/2022 15:32:40 81.17, -12.52 60.37 07/03/2022 15:33:41 81.17, -12.60 60.39 1.37 61
2 07/03/2022 16:23:21 -81.18, 155.17 119.59 07/03/2022 16:23:07 -81.19, 155.33 119.57 2.77 14
3 07/06/2022 11:07:01 81.17, 54.00 60.63 07/06/2022 11:07:55 81.17, 53.90 60.64 1.59 54
4 07/06/2022 11:57:42 -81.19,-138.30 119.32 07/06/2022 11:57:21 -81.19,-138.14 119.31 2.86 21
5 07/09/2022 06:41:23 81.18, 120.49 60.94 07/09/2022 06:42:10 81.17, 120.35 60.94 2.44 47
6 07/09/2022 07:32:04 -81.19, -71.80 119.01 07/09/2022 07:31:36 -81.19, -71.67 119.01 2.41 28
7 07/12/2022 02:15:46 81.17,-173.42 61.25 07/12/2022 02:16:25 81.17,-173.26 61.29 2.66 39
8 07/12/2022 03:06:26 -81.19, -5.33 118.65 07/12/2022 03:05:51 -81.19, -5.25 118.66 1.39 35
9 07/14/2022 21:50:07 81.17,-106.96 61.66 07/14/2022 21:50:39 81.16,-106.93 61.67 0.75 32



Historial Predications of SNOs between METOP-C and LANDSAT-8
